Regional Weather Roundup
Issued by NWS

Home | Current Version | Previous Version | Text Only | Print | Product List | Glossary On
Versions: 1 2 3 4 5 6 7 8 9 10 11 12 13 14 15 16 17 18 19 20 21 22 23 24 25 26 27
000
ASUS44 KBMX 201410
RWRAL

ALABAMA REGIONAL WEATHER ROUNDUP
NATIONAL WEATHER SERVICE BIRMINGHAM AL
900 AM CDT SUN APR 20 2014

NOTE: "FAIR" INDICATES FEW OR NO CLOUDS BELOW 12,000 FEET
WITH NO SIGNIFICANT WEATHER AND/OR OBSTRUCTIONS TO VISIBILITY.

THE REMARK "TC" DENOTES TEMPERATURE IN DEGREES CELSIUS.

ALZ001>011-014-016>018-020-201500-
NORTH ALABAMA

CITY           SKY/WX    TMP DP  RH WIND       PRES   REMARKS
MUSCLE SHOALS  SUNNY     62  47  57 S3        30.26S
HUNTSVILLE     SUNNY     62  48  60 CALM      30.25S
DECATUR        SUNNY     60  47  61 S7        30.26S
HALEYVILLE     FAIR      60  44  55 VRB7      30.28R
GADSDEN        NOT AVBL
$$

ALZ012-013-022-023-030>036-040>044-201500-
WEST CENTRAL ALABAMA

CITY           SKY/WX    TMP DP  RH WIND       PRES   REMARKS
TUSCALOOSA     SUNNY     61  46  57 VRB6      30.25S
$$

ALZ015-024>027-033>036-040>044-201500-
CENTRAL ALABAMA

CITY           SKY/WX    TMP DP  RH WIND       PRES   REMARKS
BIRMINGHAM     MOSUNNY   62  40  44 E15G26    30.26S
MONTGOMERY     CLOUDY    60  48  64 NE14      30.23R
SHELBY CO ARPT SUNNY     60  44  55 E8G17     30.25R
MAXWELL AFB    CLOUDY    65  54  67 NE10      30.22R
GREENVILLE     CLOUDY    56  49  77 E10       30.21R
$$

ALZ019-021-028-029-037-038-045>048-201500-
EAST CENTRAL ALABAMA

CITY           SKY/WX    TMP DP  RH WIND       PRES   REMARKS
ANNISTON       SUNNY     61  44  53 NE7       30.25R
ALEXANDER CITY SUNNY     62  43  50 NE10G18   30.24R
AUBURN         CLOUDY    55  45  67 NE14G22   30.24R
$$

ALZ051>064-201500-
SOUTHWEST ALABAMA

CITY           SKY/WX    TMP DP  RH WIND       PRES   REMARKS
MOBILE         MOSUNNY   61  52  72 NE13      30.20R
BROOKLEY FIELD SUNNY     62  52  69 NE15      30.20F
EVERGREEN      CLOUDY    57  50  77 N6        30.24R
$$

ALZ049-050-065>069-201500-
SOUTHEAST ALABAMA

CITY           SKY/WX    TMP DP  RH WIND       PRES   REMARKS
DOTHAN         CLOUDY    54  49  83 NE12      30.22R
OZARK          CLOUDY    55  49  82 NE10      30.19R
TROY           CLOUDY    56  49  77 NE8       30.21R
EUFAULA        CLOUDY    56  49  77 NE6       30.19R
$$



USA.gov is the U.S. government's official web portal to all federal, state and local government web resources and services.